Theta_e
350 358 364 365 366 367 368 367 366 365 363 362 362 362 362 362 362 363 363 362 362 362 361 359 358 359 359 358 359 358 361 360 361 359 357 357 360 359 359 359 356 348 353
353 357 363 364 365 365 366 368 367 365 363 363 362 362 362 363 362 362 362 362 362 361 360 359 358 359 359 357 356 358 360 357 359 360 357 356 356 359 359 358 357 352 355
349 355 359 363 364 364 366 367 366 365 363 363 364 363 363 363 362 362 362 362 361 359 359 359 360 360 359 358 356 358 358 356 355 357 358 345 347 356 358 358 357 356 357
345 347 355 363 363 363 366 367 366 365 363 363 364 363 363 363 362 361 361 362 362 358 358 358 359 359 359 359 357 358 358 357 357 357 348 346 343 359 360 361 358 357 356
340 346 356 362 363 364 365 365 362 362 364 364 363 363 363 363 362 361 361 362 362 359 357 357 358 359 358 358 358 357 358 358 357 352 343 338 333 349 361 362 361 357 358
345 350 360 362 362 363 363 363 360 363 364 364 359 362 363 363 362 361 361 361 362 362 360 360 359 359 359 358 357 356 356 356 354 343 341 338 339 358 361 362 361 360 358
346 350 355 362 362 361 361 363 362 364 363 362 361 362 361 362 361 361 361 361 361 363 363 363 361 359 358 357 357 357 356 355 346 340 337 334 332 359 361 361 360 360 360
340 344 349 359 361 360 361 362 363 363 362 362 361 361 362 361 361 360 361 361 361 361 362 362 361 359 358 357 357 357 357 355 345 339 337 334 339 357 361 360 360 360 362
341 339 337 343 349 356 359 360 360 361 360 361 361 360 361 361 361 360 360 360 360 359 361 361 360 359 358 358 357 356 356 353 341 338 335 331 343 355 361 361 359 358 357
337 331 328 332 337 335 346 360 359 359 359 358 358 358 359 359 360 360 358 359 360 359 359 359 359 359 359 358 357 357 356 354 343 339 339 337 348 353 361 361 359 357 355
335 331 331 338 337 339 344 351 355 343 339 337 340 349 355 351 350 353 355 357 359 359 359 359 358 358 358 358 357 357 355 347 342 343 341 346 350 352 358 361 358 355 354
337 337 335 334 344 346 347 342 335 336 332 336 335 334 338 343 343 347 352 356 356 358 358 358 358 357 357 350 350 355 349 347 343 342 339 349 351 354 354 360 356 354 353
332 330 332 334 339 339 343 339 338 336 333 335 331 332 332 342 343 345 342 346 347 352 349 351 351 351 348 347 345 341 346 345 342 339 339 346 349 353 356 358 356 354 352
332 331 332 334 343 341 338 332 333 332 332 333 330 331 334 339 337 338 343 344 346 345 346 343 344 347 346 346 342 339 337 339 341 338 338 346 347 349 351 358 357 354 352
330 335 337 340 341 344 345 337 334 331 332 332 334 333 337 337 336 341 339 340 340 343 341 337 340 340 341 343 341 337 336 334 334 339 339 350 352 349 350 355 358 354 353
330 330 334 331 333 333 339 341 338 337 334 333 333 335 340 338 339 339 338 338 338 338 339 338 337 336 338 338 340 339 337 335 335 334 335 336 351 353 353 355 358 356 355
327 327 326 326 327 328 324 324 334 339 341 340 341 340 339 338 337 337 337 338 338 338 338 337 337 338 338 341 336 335 338 337 338 337 337 336 338 354 356 357 358 356 356
327 324 326 327 326 324 324 322 320 322 322 328 337 338 338 337 338 337 335 336 337 338 336 335 335 333 332 334 334 334 337 340 337 335 333 335 340 338 353 355 355 355 355
326 326 325 326 325 323 322 321 319 320 321 321 322 325 326 325 327 329 328 328 332 334 334 333 332 331 331 332 332 334 335 336 337 336 330 331 341 343 342 350 351 346 346
327 325 324 327 326 324 320 319 318 321 319 322 320 323 323 324 326 323 323 324 328 328 329 329 327 329 331 332 335 334 330 331 332 334 336 339 338 341 341 341 343 344 345
327 325 323 322 326 323 318 319 318 316 318 319 321 323 322 320 322 320 320 319 319 322 324 327 327 324 325 328 326 327 329 329 330 331 333 334 336 338 338 338 339 339 341
325 325 324 324 324 324 324 322 322 319 317 318 319 319 317 316 316 314 313 313 315 317 321 322 321 321 323 324 321 320 319 323 328 331 331 332 334 335 336 335 337 336 336
324 322 323 322 323 323 321 322 321 319 317 317 315 314 312 312 311 311 310 310 312 313 316 320 320 318 317 321 322 318 312 312 316 324 327 329 329 329 331 331 334 336 335
322 321 322 320 319 320 321 320 318 314 311 312 312 311 309 309 309 310 309 311 311 313 316 318 323 319 317 316 318 322 319 319 317 316 321 324 327 328 327 326 327 329 331
321 320 317 316 316 318 319 317 313 310 311 311 309 307 309 306 308 308 308 309 310 312 314 317 319 318 317 315 315 318 320 320 320 318 315 317 322 326 324 327 326 332 329
316 316 316 315 316 317 315 314 311 309 308 307 305 306 305 305 305 307 308 308 309 310 311 314 315 315 314 315 316 316 315 316 316 317 316 318 315 318 320 321 326 325 327
Wind_Speed
6 9 15 15 14 12 14 13 12 12 12 11 12 13 13 13 15 15 15 15 14 13 12 11 10 8 6 3 5 6 9 9 11 14 15 14 13 13 14 14 14 14 14
14 8 14 15 14 12 12 14 14 13 12 12 12 13 13 12 13 13 13 13 13 12 11 9 9 8 6 4 4 5 8 9 10 12 12 12 13 13 13 13 17 14 14
11 7 10 13 12 11 9 11 13 13 13 12 12 12 12 12 12 12 11 11 11 10 9 8 7 6 4 5 5 5 5 6 7 8 9 5 5 11 12 14 18 18 15
10 7 7 12 11 9 7 8 10 11 11 12 11 12 11 11 10 10 10 10 10 10 9 7 6 6 5 4 3 3 3 3 3 3 2 4 6 12 14 14 16 17 17
9 8 7 11 10 10 9 7 6 8 8 9 9 10 10 9 10 9 9 8 8 8 7 7 6 6 5 6 5 4 3 3 3 3 4 6 4 9 16 14 14 15 15
11 9 9 10 10 10 9 8 8 8 9 7 8 9 8 7 6 6 7 7 7 8 8 7 6 6 5 5 6 5 4 4 5 4 6 8 7 8 17 18 17 15 14
15 9 8 9 8 9 9 8 8 9 8 8 7 7 8 9 9 9 9 10 10 9 9 9 8 8 8 8 8 8 8 7 5 5 6 6 6 12 19 20 19 19 18
19 14 12 11 10 7 6 8 9 9 8 6 5 6 7 7 9 10 11 12 12 12 12 11 11 11 10 10 10 10 9 10 8 6 7 7 9 11 18 17 17 17 18
23 22 15 10 11 11 6 6 8 9 8 6 4 4 7 8 8 9 11 13 14 13 13 13 13 12 12 12 12 12 12 12 7 5 8 5 10 10 17 18 17 16 17
20 24 22 6 2 3 6 6 8 7 10 8 3 3 4 6 8 10 11 12 14 14 15 14 13 13 13 13 13 13 12 15 7 6 6 6 15 12 15 19 18 18 17
12 12 17 9 7 12 12 2 9 14 9 6 7 5 7 5 7 12 15 18 17 17 16 16 15 14 14 14 14 14 15 6 5 6 6 15 18 21 16 20 20 21 18
6 6 7 5 15 11 13 8 2 2 5 2 4 3 4 6 8 11 13 16 19 21 22 20 19 17 14 6 7 15 7 8 6 8 8 21 22 22 21 23 24 20 18
10 8 8 5 7 11 9 6 4 3 4 4 6 2 3 5 7 6 2 3 7 16 7 11 9 8 9 8 8 8 9 9 7 8 13 21 21 23 24 21 22 21 20
9 13 12 9 9 12 6 4 2 1 1 3 5 5 4 4 8 8 2 2 11 8 7 6 4 9 11 12 11 10 11 8 7 7 11 21 20 22 24 19 25 24 20
12 10 9 8 7 5 7 6 4 3 3 4 2 5 3 5 6 5 3 2 4 3 2 4 3 4 5 8 11 12 12 13 8 8 7 17 17 24 25 23 25 25 23
15 13 9 16 12 10 5 4 2 1 2 4 2 6 8 3 5 5 5 6 6 4 1 2 2 2 4 1 5 5 10 6 6 6 4 5 12 13 18 21 24 25 22
12 14 13 13 13 8 8 8 4 4 5 3 3 6 4 3 4 5 4 3 5 9 9 6 5 3 5 5 4 5 12 7 5 5 5 4 6 13 17 20 25 22 17
12 11 11 11 12 12 9 8 9 8 5 5 6 6 7 8 8 6 5 4 4 4 3 4 5 4 4 7 3 5 14 7 6 7 5 5 7 4 14 20 21 19 19
8 7 6 7 9 8 9 7 7 8 6 6 5 6 7 10 11 7 6 6 6 4 4 3 4 4 4 5 6 6 7 7 7 7 9 9 8 6 4 11 16 14 17
7 7 7 5 7 7 5 5 5 7 6 8 9 7 15 12 14 12 10 12 11 9 5 4 4 3 5 6 6 6 5 6 4 5 9 8 8 8 7 6 7 10 22
7 7 6 7 7 5 4 3 6 4 4 8 9 12 15 14 14 12 10 11 11 9 8 7 3 4 4 3 3 3 6 7 8 7 8 9 10 9 5 5 4 4 7
6 5 4 6 8 7 7 5 5 4 4 5 8 10 14 16 15 12 10 9 10 9 10 7 5 3 3 2 2 3 3 3 3 4 7 7 11 5 5 5 4 3 4
5 5 5 10 14 12 10 7 6 5 6 7 8 9 10 14 13 13 13 11 10 8 8 8 5 5 3 3 3 3 3 3 2 3 3 4 4 3 5 4 4 3 5
3 5 15 14 11 9 10 8 11 6 5 7 7 7 8 12 12 11 12 13 12 9 9 9 7 5 3 5 2 2 3 2 2 3 3 4 3 4 2 1 3 4 1
9 14 10 8 8 9 11 10 6 7 6 6 7 8 10 9 13 14 14 12 11 8 9 11 8 6 3 2 1 2 2 2 4 3 3 3 3 5 5 4 3 2 3
12 10 6 8 8 9 8 8 9 7 7 7 7 7 6 6 8 13 15 13 12 12 12 10 11 11 10 7 5 3 3 3 2 2 2 3 1 3 5 7 3 5 5
Wind_Direction
130 142 130 122 121 128 130 133 136 132 128 123 117 109 102 95 95 96 101 105 111 118 126 135 139 134 137 123 94 117 133 140 133 127 132 138 140 133 113 111 116 121 125
130 143 127 122 124 132 143 145 146 142 139 136 130 123 116 107 103 104 107 109 114 122 131 142 144 147 152 135 120 135 143 144 137 135 145 152 150 133 128 127 123 132 137
121 131 118 115 118 127 143 151 148 145 142 139 137 133 125 120 120 119 121 122 124 129 135 146 153 156 151 137 140 131 141 141 141 150 166 170 153 148 150 140 140 145 146
132 115 104 112 108 106 107 139 139 140 141 140 140 136 132 129 126 128 130 132 137 141 148 157 161 155 145 143 143 138 133 135 161 192 241 228 209 180 176 164 156 155 153
115 100 112 109 103 96 89 98 112 131 128 130 128 127 134 143 146 143 143 143 148 149 152 158 165 161 163 160 166 172 182 190 225 256 266 271 246 205 183 175 169 165 162
103 93 98 88 79 80 80 72 92 112 123 123 139 144 146 145 136 142 148 158 171 175 175 173 174 180 184 186 188 189 205 231 250 265 270 271 264 177 179 178 181 173 177
71 78 69 75 97 109 106 95 94 105 127 145 156 161 173 173 171 174 178 182 187 193 190 190 186 190 199 201 199 201 207 217 230 258 272 275 284 190 191 187 188 181 178
48 32 34 38 25 23 86 99 94 89 84 93 125 168 179 192 191 193 194 197 198 200 200 196 195 196 202 210 212 210 208 217 232 229 254 275 270 201 206 200 198 184 178
58 44 6 4 25 3 337 116 116 112 112 109 122 164 194 204 208 209 211 209 208 209 210 207 204 202 204 209 210 212 212 218 219 233 247 253 274 220 206 199 201 198 189
83 72 308 273 232 29 328 253 120 81 74 53 18 293 236 232 228 226 225 227 223 219 217 217 213 210 211 214 220 221 222 230 223 219 244 247 261 255 219 204 204 204 196
103 144 209 353 308 34 344 279 68 61 34 9 10 314 239 245 223 225 222 219 224 224 222 220 220 220 218 219 222 224 232 232 214 224 232 241 243 255 226 207 205 204 197
180 170 151 231 37 30 345 14 51 287 147 327 269 102 26 324 270 246 236 235 234 227 222 217 218 220 222 225 226 229 225 224 214 229 230 235 234 239 244 205 205 202 199
171 145 150 179 126 126 168 187 230 258 359 331 249 248 48 342 312 291 311 265 283 249 237 238 231 223 222 218 224 226 220 221 223 226 235 238 235 237 241 212 209 200 197
161 144 169 193 160 170 163 209 213 173 354 275 323 20 26 336 300 300 354 243 206 238 215 223 232 227 227 227 223 230 230 220 221 228 235 238 241 243 245 223 207 204 195
88 89 104 99 91 113 135 159 172 193 215 243 309 312 274 271 284 310 340 13 303 321 323 334 297 328 287 252 233 220 231 233 224 223 231 234 233 236 239 234 213 209 198
50 50 39 43 32 34 23 64 79 295 203 185 240 260 253 263 294 316 327 334 313 272 282 325 301 260 272 316 319 281 270 248 237 238 229 236 240 240 238 223 211 212 202
48 51 46 47 33 34 39 47 40 338 322 275 244 254 300 312 315 313 311 322 334 306 333 341 327 300 295 279 218 287 283 255 244 273 287 255 250 228 212 204 210 211 199
52 43 38 37 40 31 24 39 24 10 3 359 358 355 351 352 324 327 325 297 253 278 306 310 311 294 284 278 275 256 248 274 276 252 253 271 291 265 218 207 210 193 197
84 64 49 42 32 38 34 33 31 1 4 16 19 39 15 6 357 350 336 313 310 288 285 288 285 248 262 271 269 253 237 250 248 257 256 255 250 250 231 225 205 202 224
89 80 63 44 36 36 45 44 21 13 1 15 11 20 9 13 19 20 9 358 351 331 303 289 268 279 254 261 269 267 277 270 259 252 261 264 261 244 233 221 235 221 234
90 77 62 46 20 42 27 56 36 3 18 21 13 21 18 14 19 14 5 358 352 342 323 297 282 294 299 274 265 266 274 258 258 255 267 266 264 257 217 248 225 228 234
119 101 70 54 39 26 31 17 41 32 21 20 15 22 21 13 16 8 0 347 337 333 328 327 337 300 258 284 277 270 288 334 274 284 271 251 255 262 254 211 233 203 220
59 62 72 49 51 46 39 26 28 6 22 25 22 24 19 17 8 6 357 349 341 332 322 309 301 325 287 282 215 219 309 260 357 274 266 236 278 277 272 297 224 270 247
70 76 59 60 53 55 42 39 38 19 22 26 21 11 16 8 358 0 355 351 345 332 329 315 315 299 280 282 315 215 226 220 289 315 318 311 312 330 333 52 229 243 249
51 78 69 62 46 48 47 54 41 36 36 22 15 4 12 1 356 352 351 350 346 341 335 330 315 328 336 320 22 330 306 293 240 237 267 324 350 42 8 357 272 105 69
70 81 66 59 45 57 55 45 39 44 45 35 13 8 358 353 357 355 351 350 345 355 349 7 6 26 21 13 11 27 23 328 323 320 290 271 357 38 23 8 359 77 65